HB9HUT-13 Weather Reports


time (UTC)temp
C
wind
direction
speed
KPH
gust
KPH
rain 1hr
cm
rain 24hr
cm
rain mn
cm
humidity
%
barometer
mb
20260506201142 8 0 0.0 0.0 0.00 0.00 0.00 47 840.3
20260506195639 8 0 0.0 0.0 0.00 0.00 0.00 47 840.2
20260506194136 8 0 0.0 0.0 0.00 0.00 0.00 47 840.0
20260506192633 8 0 0.0 0.0 0.00 0.00 0.00 47 839.8
20260506191130 8 0 0.0 0.0 0.00 0.00 0.00 46 839.7
20260506185627 8 0 0.0 0.0 0.00 0.00 0.00 47 839.4
20260506184124 9 0 0.0 0.0 0.00 0.00 0.00 47 839.3
20260506182621 9 0 0.0 0.0 0.00 0.00 0.00 47 839.2
20260506181118 10 0 0.0 0.0 0.00 0.00 0.00 48 839.0
20260506175615 10 0 0.0 0.0 0.00 0.00 0.00 48 839.0
20260506174112 10 0 0.0 0.0 0.00 0.00 0.00 49 839.0
20260506172609 10 0 0.0 0.0 0.00 0.00 0.00 48 838.9
20260506171106 11 0 0.0 0.0 0.00 0.00 0.00 49 838.8
20260506165603 11 0 0.0 0.0 0.00 0.00 0.00 48 838.6
20260506164100 11 0 0.0 0.0 0.00 0.00 0.00 47 838.6
20260506162557 11 0 0.0 0.0 0.00 0.00 0.00 47 838.6
20260506161054 10 0 0.0 0.0 0.00 0.00 0.00 47 838.4
20260506155552 10 0 0.0 0.0 0.00 0.00 0.00 48 838.6
20260506154048 10 0 0.0 0.0 0.00 0.00 0.00 48 838.4
20260506152545 10 0 0.0 0.0 0.00 0.00 0.00 49 838.6
20260506151042 11 0 0.0 0.0 0.00 0.00 0.00 47 838.5
20260506145539 11 0 0.0 0.0 0.00 0.00 0.00 46 838.7
20260506144036 11 0 0.0 0.0 0.00 0.00 0.00 46 838.6
20260506142533 11 0 0.0 0.0 0.00 0.00 0.00 46 838.4
20260506141030 12 0 0.0 0.0 0.00 0.00 0.00 46 838.3
20260506135527 12 0 0.0 0.0 0.00 0.00 0.00 47 837.9
20260506134024 13 0 0.0 0.0 0.00 0.00 0.00 46 837.9
20260506132521 13 0 0.0 0.0 0.00 0.00 0.00 45 837.8
20260506131018 14 0 0.0 0.0 0.00 0.00 0.00 46 837.8
20260506125515 15 0 0.0 0.0 0.00 0.00 0.00 45 837.6
20260506124012 15 0 0.0 0.0 0.00 0.00 0.00 45 837.4
20260506122509 15 0 0.0 0.0 0.00 0.00 0.00 45 837.2
20260506121006 15 0 0.0 0.0 0.00 0.00 0.00 45 836.9
20260506115503 15 0 0.0 0.0 0.00 0.00 0.00 45 836.8
20260506114000 16 0 0.0 0.0 0.00 0.00 0.00 44 836.8
20260506112457 16 0 0.0 0.0 0.00 0.00 0.00 44 836.7
20260506110954 16 0 0.0 0.0 0.00 0.00 0.00 45 836.8
20260506105451 16 0 0.0 0.0 0.00 0.00 0.00 45 836.8
20260506103948 16 0 0.0 0.0 0.00 0.00 0.00 44 836.7
20260506102445 16 0 0.0 0.0 0.00 0.00 0.00 45 836.6
20260506100942 16 0 0.0 0.0 0.00 0.00 0.00 45 836.7
20260506095439 16 0 0.0 0.0 0.00 0.00 0.00 44 836.7
20260506093936 15 0 0.0 0.0 0.00 0.00 0.00 45 836.6
20260506092433 15 0 0.0 0.0 0.00 0.00 0.00 45 836.6
20260506090930 13 0 0.0 0.0 0.00 0.00 0.00 46 836.5
20260506085427 12 0 0.0 0.0 0.00 0.00 0.00 45 836.4
20260506083924 11 0 0.0 0.0 0.00 0.00 0.00 45 836.6
20260506082421 10 0 0.0 0.0 0.00 0.00 0.00 45 836.6
20260506080918 10 0 0.0 0.0 0.00 0.00 0.00 45 836.7
20260506072409 9 0 0.0 0.0 0.00 0.00 0.00 45 837.0
20260506070906 8 0 0.0 0.0 0.00 0.00 0.00 44 837.0
20260506062357 8 0 0.0 0.0 0.00 0.00 0.00 43 836.9
20260506060854 8 0 0.0 0.0 0.00 0.00 0.00 44 836.8
20260506050842 7 0 0.0 0.0 0.00 0.00 0.00 44 836.9
20260506043836 7 0 0.0 0.0 0.00 0.00 0.00 44 837.1
20260506042333 7 0 0.0 0.0 0.00 0.00 0.00 44 837.3
20260506040830 7 0 0.0 0.0 0.00 0.00 0.00 45 837.4
20260506035327 7 0 0.0 0.0 0.00 0.00 0.00 48 837.6
20260506033824 7 0 0.0 0.0 0.00 0.00 0.00 44 837.8
20260506032321 7 0 0.0 0.0 0.00 0.00 0.00 44 838.1
20260506030818 8 0 0.0 0.0 0.00 0.00 0.00 44 838.3
20260506025315 8 0 0.0 0.0 0.00 0.00 0.00 44 838.4
20260506023812 8 0 0.0 0.0 0.00 0.00 0.00 44 838.5
20260506022309 8 0 0.0 0.0 0.00 0.00 0.00 44 838.6
20260506020806 8 0 0.0 0.0 0.00 0.00 0.00 48 838.8
20260506015305 8 0 0.0 0.0 0.00 0.00 0.00 44 838.8
20260506013800 8 0 0.0 0.0 0.00 0.00 0.00 44 839.1
20260506012257 8 0 0.0 0.0 0.00 0.00 0.00 45 839.1
20260506010754 8 0 0.0 0.0 0.00 0.00 0.00 44 839.2
20260506005252 8 0 0.0 0.0 0.00 0.00 0.00 45 839.3
20260506003748 8 0 0.0 0.0 0.00 0.00 0.00 45 839.5
20260506002245 8 0 0.0 0.0 0.00 0.00 0.00 44 839.4
20260506000742 8 0 0.0 0.0 0.00 0.00 0.00 44 839.7
20260505235239 8 0 0.0 0.0 0.00 0.00 0.00 43 840.0
20260505233736 8 0 0.0 0.0 0.00 0.00 0.00 43 839.9
20260505232233 8 0 0.0 0.0 0.00 0.00 0.00 46 839.8
20260505230730 8 0 0.0 0.0 0.00 0.00 0.00 44 839.9
20260505225227 8 0 0.0 0.0 0.00 0.00 0.00 44 840.0
20260505223724 8 0 0.0 0.0 0.00 0.00 0.00 45 840.0
20260505222221 9 0 0.0 0.0 0.00 0.00 0.00 45 840.2
20260505220718 9 0 0.0 0.0 0.00 0.00 0.00 43 840.2
20260505215215 9 0 0.0 0.0 0.00 0.00 0.00 43 840.2
20260505212209 10 0 0.0 0.0 0.00 0.00 0.00 43 840.5
20260505210706 10 0 0.0 0.0 0.00 0.00 0.00 44 840.6
20260505205203 10 0 0.0 0.0 0.00 0.00 0.00 44 840.7
20260505203700 11 0 0.0 0.0 0.00 0.00 0.00 44 840.6
20260505202157 11 0 0.0 0.0 0.00 0.00 0.00 44 840.6